Terminal Aerodrome Forecast
Issued by NWS Charleston, WV

Current Version | Previous Version | Graphics & Text | Print | Product List | Glossary On
Versions: 1 2 3 4 5 6 7 8 9 10 11 12 13 14 15 16 17 18 19 20 21 22 23 24 25 26 27 28 29 30 31
000
FTUS41 KRLX 031750 CCA
TAFCRW
TAF COR
KCRW 031750Z 0318/0418 13004KT P6SM BKN020 BKN070
     FM031900 24004KT 5SM SHRA VCTS OVC025CB
      TEMPO 0319/0320 3SM TSRA OVC015CB
     FM032100 24005KT 6SM SHRA SCT020 OVC060
     FM040300 25005KT 5SM BR OVC015
     FM040700 24004KT P6SM OVC008
     FM041400 24004KT P6SM BKN025=

USA.gov is the U.S. government's official web portal to all federal, state and local government web resources and services.